Location: Piotrkow Trybunalski
(51.4000°N, 19.6830°E)
Time: 12:58:55
(UTC+02:00)

A-11 Canister half - Pass Details

Date: 06 February 2023
Orbit: 1526 x 1682 km, 47.3° (Epoch: 26 March)

Event Time Altitude Azimuth Distance (km) Brightness Sun altitude
Rises 06:51:23 0° 254° (WSW) 4,673 11.0 -3.8°
Reaches altitude 10° 06:54:26 10° 252° (WSW) 3,692 10.6 -3.3°
Maximum altitude 07:03:37 68° 172° (S) 1,637 9.4 -2.0°
Drops below altitude 10° 07:13:00 10° 92° (E) 3,763 12.5 -0.7°
Sets 07:16:07 0° 91° (E) 4,767 13.0 -0.2°
